CZ-6A DEB, 54384

Orbit data source: Space-Track

CZ-6A DEB, 54384 is space debris in SSO originally from a launch on Fri, 11 Nov 2022 UTC launched from the Taiyaun Space Center, China (TSC). Debris objects in space refer to the collection of defunct objects orbiting the Earth. Examples of debris include non-operational satellites, rocket bodies, and fragments generated from explosions, collisions, or faulty payload assembly.

Loading next visibility...
Identifier
54384, 2022-151DG
Orbit
SSO
Country
Flag of CNCN / PRC
Related business
Manufacturer
SAST
Mission
Spacecraft
Bus & Motor
Unknown
Mass
Unknown
Launch date (UTC)
2022-11-11 (4 years ago)
Launch vehicle
Unknown
Launch site
Taiyaun Space Center, China (TSC)
Object type
Payload
Rocket body
Debris
Shape & HBR
Unknown shape, 0.1 m
Radar Cross Section
Small (<0.1 m²)

Expand to show TLE details & history
Last TLE update: 2 days ago

TLE from 2 days ago
0 CZ-6A DEB
1 54384U 22151DG  26171.02512712  .00000803  00000-0  37094-3 0  9999
2 54384  98.7592 187.0597 0035917 166.2443 193.9722 14.23395723186236
Epoch: 2026-06-20T00:36Z
TLE epoch observation values (Epoch: 2026-06-20T00:36:10.983Z)
Latitude
-0.00003°
Longitude
-90.23174°
Altitude
841.887 km
Speed
7.419 km/s
True Right ascension
12h 28m 14s
True Declination
0° 00' 00"
Sunlit
Object was in daylight at epoch
Visualization orbit readout
Latitude
Unknown
Longitude
Unknown
Altitude
Unknown
Speed
Unknown
Apparent Right ascension
Unknown
Apparent Declination
Unknown
Sunlit
N/A
Visualization observer readout
Local Sidereal Time
21:29:10
Azimuth
Unknown
Elevation
Unknown
Doppler factor
Unknown
Orbital elements
Apogee altitude
836.869 km
Perigee altitude
785.227 km
Semi-major axis
7,189.185 km
Eccentricity
0.00359
Inclination
98.7592°
RAAN
187.0597°
Arg. of periapsis
166.2443°
True anomaly
193.87326°
Mean anomaly
193.9722°
Eccentric anomaly
193.92268°
Mean motion
3.5606 °/min
Orbital period
101.11 mins
BSTAR
0.00037094
Loading maneuver chart data...
Computing Atmospheric mass density...
Loading historical data...
Loading historical data...
Loading historical data...
Loading historical data...
Loading historical data...
Loading historical data...
Loading historical data...

Documentation

Showing up to 5 results
|